Location: Nebula Knoll Observatory
(43.6666°N, 71.0000°W)
Time: 21:50:49
(UTC-05:00)

Daily predictions for brighter satellites

Satellite Brightness Start Highest point End
(mag) Time Altitude Azimuth Time Altitude Azimuth Time Altitude Azimuth
Cosmos 2341 Rocket 4.0 16:28:37 10° N 16:34:52 78° E 16:41:05 10° SSE
Cosmos 158 Rocket 4.0 16:31:08 10° NNW 16:36:32 75° ENE 16:41:47 10° SSE
Meteor 1-5 Rocket 4.2 16:32:53 10° N 16:38:15 60° ENE 16:43:45 10° SSE
Okean 3 3.6 16:37:55 10° S 16:42:13 86° W 16:46:31 10° N
Cosmos 2082 Rocket 3.5 16:40:45 10° N 16:44:36 18° NE 16:48:26 10° E
SL-27 R/B 2.8 16:41:20 10° N 16:44:53 44° ENE 16:48:23 10° SE
Cosmos 1833 Rocket 4.1 16:42:47 10° N 16:46:17 16° NE 16:49:46 10° E
Cosmos 1484 Rocket 3.9 16:52:10 10° ESE 16:55:00 21° ENE 16:57:49 10° NNE
Cosmos 1633 4.4 16:53:49 10° NNW 16:57:06 34° W 17:00:22 10° SSW
Cosmos 1544 Rocket 3.7 16:54:36 10° N 16:59:01 56° E 17:03:24 10° SSE
COSMO-SKYMED 1 3.9 16:57:19 10° NE 17:00:40 21° E 17:03:59 10° SE
Cosmos 1975 Rocket 3.3 16:59:38 10° SSW 17:03:55 72° W 17:08:16 10° N
Cosmos 1500 4.2 17:02:02 10° NNE 17:05:12 24° ENE 17:08:23 10° SE
Cosmos 2263 Rocket 4.1 17:02:30 10° WSW 17:07:02 24° NW 17:11:36 10° N
USA 116 4.5 17:01:43 10° NNE 17:07:09 76° ESE 17:12:21 10° S
BREEZE-M DEB (TANK) 4.2 17:00:24 10° W 17:09:27 46° NNW 17:12:59 15° NE
PAYLOAD A 4.4 17:06:36 10° S 17:11:21 64° WSW 17:16:19 10° NNW
GEOS 3 Rocket 4.0 17:14:03 10° ESE 17:18:49 41° NE 17:23:37 10° NNW
Cosmos 1536 Rocket 3.7 17:16:10 10° S 17:20:31 53° E 17:24:54 10° NNE
USA 234 3.4 17:16:31 12° NE 17:22:35 72° NW 17:29:03 10° WSW
Tiangong 1 3.2 17:22:47 10° S 17:24:35 15° SSE 17:25:29 13° SE
SPOT 3 Rocket 3.9 17:20:14 10° S 17:25:24 70° WSW 17:30:35 10° NNW
Okean 1 3.4 17:23:40 10° S 17:27:37 55° E 17:31:37 10° NNE
YAOGAN 1 2.9 17:24:07 10° S 17:28:24 68° WSW 17:32:45 10° NNW
Meteor 1-18 Rocket 4.2 17:23:06 10° S 17:28:44 78° E 17:34:30 10° NNE
Cosmos 1844 Rocket 3.2 17:26:27 10° SW 17:31:58 59° WNW 17:37:33 10° NNE
Cosmos 1812 2.6 17:28:07 10° S 17:31:59 89° E 17:35:52 10° N
BREEZE M DEB (TANK) 3.6 17:25:05 10° SW 17:33:45 40° SSE 17:35:33 24° E
COSMOS 2487 2.8 17:32:44 10° N 17:36:10 40° ENE 17:38:37 17° SE
CZ-3A R/B 4.5 17:19:48 10° WSW 17:37:36 50° NNW 17:41:45 18° NE
EP 2 4.1 17:35:20 10° SW 17:37:55 84° SE 17:38:30 50° NE
Cosmos 921 Rocket 4.1 17:34:30 10° SSE 17:37:43 25° ESE 17:37:43 25° ESE
NOSS 3-3 (A) 4.0 17:33:10 10° SSW 17:39:17 68° ESE 17:44:01 20° NE
NOSS 3-3 (C) 4.0 17:33:16 10° SSW 17:39:23 67° ESE 17:44:05 20° NE
FALCON 9 R/B 4.3 17:13:26 10° WSW 17:40:18 50° S 17:46:24 17° ESE
ISS -2.2 17:38:04 10° W 17:41:10 36° NNW 17:42:12 28° NNE
Cosmos 1346 Rocket 2.8 17:39:49 10° S 17:43:38 53° E 17:45:21 29° NNE
IDEFIX/ARIANE 42P 3.6 17:41:01 10° S 17:46:01 48° W 17:51:03 10° NNW
Cosmos 494 Rocket 4.5 17:41:38 10° NNW 17:46:49 63° WSW 17:52:00 10° S
ATLAS 2AS CENTAUR R/B 3.5 17:38:59 10° NW 17:46:56 64° WSW 17:54:21 10° SSE
Cosmos 1455 Rocket 3.8 17:44:08 10° NNW 17:48:25 54° W 17:52:44 10° S
Cosmos 1844 4.2 17:43:15 10° SW 17:48:43 58° WNW 17:54:04 11° NNE
SKYMED 2 3.5 17:45:30 16° NNE 17:48:59 69° ESE 17:53:18 10° S
Cosmos 2366 rocket 4.5 17:44:13 10° NNW 17:50:30 64° W 17:56:42 10° S
Cosmos 2297 4.0 17:45:36 10° S 17:50:56 45° ESE 17:53:06 31° ENE
Okean 1-7 Rocket 3.9 17:49:35 10° SSE 17:53:53 44° E 17:54:42 40° ENE
CZ-3B DEB 2.5 17:52:10 10° WSW 17:56:15 74° NNW 18:02:20 23° NE
MSX 4.4 17:53:02 10° S 17:58:41 59° W 18:04:22 10° NNW
Cosmos 1934 Rocket 4.3 17:54:18 10° N 18:00:07 41° ENE 18:05:58 10° SE
Cosmos 1809 Rocket 4.4 17:55:50 10° N 18:02:02 89° W 18:08:09 10° S
CZ-4 R/B 4.3 18:00:06 10° SW 18:03:09 20° W 18:06:13 10° NW
Abrixas 3.7 18:01:38 10° WNW 18:03:36 34° NW 18:03:36 34° NW
Cosmos 2278 Rocket 2.4 17:59:32 10° SSW 18:05:10 70° WNW 18:09:21 19° NNE
Timation 2 Rocket 4.1 18:03:10 10° NNW 18:10:01 80° ENE 18:16:55 10° SSE
BREEZE-M R/B 3.9 18:00:33 10° WSW 18:10:35 88° NNW 18:12:19 46° ENE
Cosmos 1975 4.0 18:06:54 10° NNW 18:10:46 43° W 18:14:36 10° SSW
Meteor 1-19 Rocket 4.2 18:09:22 10° S 18:15:05 68° E 18:18:27 26° NNE
Cosmos 2239 Rocket 4.3 18:09:39 10° N 18:15:53 69° E 18:22:00 10° SSE
Genesis I 3.9 18:18:22 10° NW 18:22:13 53° WSW 18:23:19 39° S
Cosmos 1821 Rocket 3.8 18:19:19 10° N 18:25:27 78° E 18:31:32 10° SSE
NOAA 12 4.0 18:20:34 10° SSE 18:25:52 86° WSW 18:31:10 10° NNW
Cosmos 2082 Rocket 2.1 18:23:45 10° NNW 18:29:26 85° WSW 18:33:41 18° SSE
SL-8 R/B 3.6 18:26:01 10° WSW 18:30:48 75° NNW 18:30:50 75° NNW
Cosmos 1833 Rocket 2.5 18:25:24 10° NNW 18:31:05 86° ENE 18:33:05 42° SSE
Meteor 1-13 Rocket 4.4 18:26:48 10° SSW 18:32:27 72° WNW 18:37:11 16° N
METEOR-M 4.0 18:28:38 10° SSE 18:33:59 86° WSW 18:39:21 10° NNW
COSMO-SKYMED 1 4.0 18:34:05 17° NNW 18:36:55 36° WNW 18:40:54 10° SW
Meteor 1-23 Rocket 4.4 18:38:45 10° S 18:43:21 57° SSE 18:43:21 57° SSE
Timation 1 Rocket 4.4 18:48:58 10° SSW 18:54:55 74° WNW 18:55:27 69° NNW
Meteor 2-4 Rocket 4.0 18:53:59 10° SSW 18:58:30 60° SW 18:58:30 60° SW
USA 234 4.3 19:03:52 32° N 19:04:58 34° NNW 19:10:40 10° WNW
ATLAS 3B CENTAUR R/B 4.3 19:02:11 10° WSW 19:13:46 28° SSW 19:15:57 25° S
BREEZE M DEB (TANK) 4.0 19:17:16 10° WNW 19:21:54 82° SSW 19:21:54 82° SSW
NOSS 3-4 (A) 3.9 19:15:43 10° NW 19:22:00 72° WNW 19:22:00 72° WNW
NOSS 3-4 (C) 3.9 19:15:49 10° NW 19:22:02 71° WNW 19:22:02 71° WNW
CZ-3B DEB 4.4 20:26:17 10° WNW 20:30:57 40° NNW 20:30:57 40° NNW
